START_TIME,STEP,MOV.,M35,t_acc.,PL05,t_acc.,PL06,t_acc.,PL07,t_acc.
1979-07-30 06:00:22.960 ,0,1,0.,4.8,7.,4.8,0.,4.8,0.,4.8
1979-07-30 06:00:27.760 ,0,1,0.,4.8,11.,4.8,0.,4.8,0.,4.8
1979-07-30 06:00:32.560 ,0,1,0.,4.8,11.,4.8,0.,4.8,0.,4.8
1979-07-30 06:00:37.360 ,0,1,0.,4.8,3.,4.8,0.,4.8,1.,4.8
1979-07-30 06:00:42.160 ,0,1,0.,4.8,6.,4.8,1.,4.8,0.,4.8
1979-07-30 06:00:46.960 ,4,1,0.,4.8,8.,4.8,1.,4.8,0.,4.8
1979-07-30 06:00:51.760 ,4,1,0.,4.8,12.,4.8,1.,4.8,0.,4.8
1979-07-30 06:00:56.560 ,4,1,0.,4.8,8.,4.8,0.,4.8,0.,4.8
1979-07-30 06:01:01.360 ,4,1,0.,4.8,6.,4.8,2.,4.8,0.,4.8
1979-07-30 06:01:06.160 ,4,1,0.,4.8,9.,4.8,0.,4.8,0.,4.8
1979-07-30 06:01:10.960 ,7,1,0.,4.8,4.,4.8,0.,4.8,0.,4.8
1979-07-30 06:01:15.760 ,7,1,0.,4.8,2.,4.8,0.,4.8,0.,4.8
1979-07-30 06:01:20.560 ,7,1,0.,4.8,7.,4.8,3.,4.8,0.,4.8
1979-07-30 06:01:25.360 ,7,1,0.,4.8,4.,4.8,0.,4.8,0.,4.8
1979-07-30 06:01:30.160 ,7,1,0.,4.8,0.,4.8,1.,4.8,0.,4.8
1979-07-30 06:01:34.960 ,3,1,0.,4.8,2.,4.8,0.,4.8,0.,4.8
1979-07-30 06:01:39.760 ,3,1,0.,4.8,5.,4.8,0.,4.8,0.,4.8
1979-07-30 06:01:44.560 ,3,1,0.,4.8,8.,4.8,1.,4.8,0.,4.8
1979-07-30 06:01:49.360 ,3,1,0.,4.8,5.,4.8,1.,4.8,0.,4.8
1979-07-30 06:01:54.160 ,3,1,0.,4.8,4.,4.8,0.,4.8,0.,4.8
1979-07-30 06:01:58.960 ,0,1,0.,4.8,5.,4.8,1.,4.8,1.,4.8
1979-07-30 06:02:03.760 ,0,1,0.,4.8,8.,4.8,3.,4.8,0.,4.8
1979-07-30 06:02:08.560 ,0,1,0.,4.8,7.,4.8,2.,4.8,0.,4.8
1979-07-30 06:02:13.360 ,0,1,0.,4.8,9.,4.8,0.,4.8,0.,4.8
1979-07-30 06:02:18.160 ,0,1,0.,4.8,11.,4.8,2.,4.8,0.,4.8
1979-07-30 06:02:22.960 ,4,1,0.,4.8,7.,4.8,1.,4.8,0.,4.8
1979-07-30 06:02:27.760 ,4,1,0.,4.8,14.,4.8,4.,4.8,0.,4.8
1979-07-30 06:02:32.560 ,4,1,0.,4.8,4.,4.8,0.,4.8,0.,4.8
1979-07-30 06:02:37.360 ,4,1,0.,4.8,6.,4.8,0.,4.8,0.,4.8
1979-07-30 06:02:42.160 ,4,1,0.,4.8,6.,4.8,1.,4.8,0.,4.8
1979-07-30 06:02:46.960 ,7,1,0.,4.8,4.,4.8,0.,4.8,0.,4.8
1979-07-30 06:02:51.760 ,7,1,0.,4.8,7.,4.8,0.,4.8,0.,4.8
1979-07-30 06:02:56.560 ,7,1,0.,4.8,5.,4.8,0.,4.8,0.,4.8
1979-07-30 06:03:01.360 ,7,1,0.,4.8,1.,4.8,1.,4.8,0.,4.8
1979-07-30 06:03:06.160 ,7,1,0.,4.8,0.,4.8,0.,4.8,0.,4.8
1979-07-30 06:03:10.960 ,3,1,0.,4.8,0.,4.8,0.,4.8,0.,4.8
1979-07-30 06:03:15.760 ,3,1,0.,4.8,5.,4.8,1.,4.8,0.,4.8
1979-07-30 06:03:20.560 ,3,1,0.,4.8,5.,4.8,0.,4.8,1.,4.8
1979-07-30 06:03:25.360 ,3,1,0.,4.8,6.,4.8,0.,4.8,0.,4.8
1979-07-30 06:03:30.160 ,3,1,0.,4.8,8.,4.8,2.,4.8,1.,4.8
1979-07-30 06:03:34.960 ,0,1,0.,4.8,2.,4.8,1.,4.8,0.,4.8
1979-07-30 06:03:39.760 ,0,1,0.,4.8,12.,4.8,0.,4.8,0.,4.8
1979-07-30 06:03:44.560 ,0,1,0.,4.8,15.,4.8,2.,4.8,0.,4.8
1979-07-30 06:03:49.360 ,0,1,0.,4.8,9.,4.8,0.,4.8,0.,4.8
1979-07-30 06:03:54.160 ,0,1,0.,4.8,6.,4.8,0.,4.8,0.,4.8
1979-07-30 06:03:58.960 ,4,1,0.,4.8,2.,4.8,1.,4.8,1.,4.8
1979-07-30 06:04:03.760 ,4,1,1.,4.8,4.,4.8,1.,4.8,0.,4.8
1979-07-30 06:04:08.560 ,4,1,0.,4.8,15.,4.8,0.,4.8,0.,4.8
1979-07-30 06:04:13.360 ,4,1,0.,4.8,6.,4.8,0.,4.8,1.,4.8
1979-07-30 06:04:18.160 ,4,1,0.,4.8,4.,4.8,1.,4.8,1.,4.8
1979-07-30 06:04:22.960 ,7,1,0.,4.8,7.,4.8,1.,4.8,0.,4.8
1979-07-30 06:04:27.760 ,7,1,0.,4.8,5.,4.8,2.,4.8,0.,4.8
1979-07-30 06:04:32.560 ,7,1,0.,4.8,8.,4.8,1.,4.8,0.,4.8
1979-07-30 06:04:37.360 ,7,1,0.,4.8,3.,4.8,0.,4.8,0.,4.8
1979-07-30 06:04:42.160 ,7,1,0.,4.8,1.,4.8,0.,4.8,0.,4.8
1979-07-30 06:04:46.960 ,3,1,0.,4.8,2.,4.8,1.,4.8,0.,4.8
1979-07-30 06:04:51.760 ,3,1,0.,4.8,11.,4.8,0.,4.8,0.,4.8
1979-07-30 06:04:56.560 ,3,1,0.,4.8,5.,4.8,1.,4.8,1.,4.8
1979-07-30 06:05:01.360 ,3,1,0.,4.8,7.,4.8,1.,4.8,0.,4.8
1979-07-30 06:05:06.160 ,3,1,0.,4.8,3.,4.8,0.,4.8,1.,4.8
1979-07-30 06:05:10.960 ,0,1,0.,4.8,6.,4.8,0.,4.8,0.,4.8
1979-07-30 06:05:15.760 ,0,1,0.,4.8,7.,4.8,1.,4.8,1.,4.8
1979-07-30 06:05:20.560 ,0,1,0.,4.8,11.,4.8,1.,4.8,0.,4.8
1979-07-30 06:05:25.360 ,0,1,0.,4.8,9.,4.8,1.,4.8,0.,4.8
1979-07-30 06:05:30.160 ,0,1,0.,4.8,4.,4.8,0.,4.8,0.,4.8
1979-07-30 06:05:34.960 ,0,0,0.,4.8,9.,4.8,1.,4.8,0.,4.8
1979-07-30 06:05:39.760 ,0,0,0.,4.8,9.,4.8,3.,4.8,0.,4.8
1979-07-30 06:05:44.560 ,0,0,0.,4.8,11.,4.8,0.,4.8,1.,4.8
1979-07-30 06:05:49.360 ,0,0,0.,4.8,3.,4.8,0.,4.8,0.,4.8
1979-07-30 06:05:54.160 ,0,0,0.,4.8,3.,4.8,1.,4.8,0.,4.8
1979-07-30 06:05:58.960 ,0,0,0.,4.8,6.,4.8,1.,4.8,0.,4.8
1979-07-30 06:06:03.760 ,0,0,0.,4.8,4.,4.8,0.,4.8,2.,4.8
1979-07-30 06:06:08.560 ,0,0,0.,4.8,10.,4.8,0.,4.8,0.,4.8
1979-07-30 06:06:13.360 ,0,0,0.,4.8,2.,4.8,1.,4.8,0.,4.8
1979-07-30 06:06:18.160 ,0,0,0.,4.8,1.,4.8,0.,4.8,0.,4.8
1979-07-30 06:06:22.960 ,5,0,0.,4.8,3.,4.8,0.,4.8,0.,4.8
1979-07-30 06:06:27.760 ,5,0,0.,4.8,10.,4.8,3.,4.8,0.,4.8
1979-07-30 06:06:32.560 ,5,0,0.,4.8,5.,4.8,0.,4.8,0.,4.8
1979-07-30 06:06:37.360 ,5,0,0.,4.8,2.,4.8,0.,4.8,0.,4.8
1979-07-30 06:06:42.160 ,5,0,0.,4.8,5.,4.8,3.,4.8,0.,4.8
1979-07-30 06:06:46.960 ,5,0,0.,4.8,9.,4.8,0.,4.8,0.,4.8
1979-07-30 06:06:51.760 ,5,0,0.,4.8,6.,4.8,0.,4.8,0.,4.8
1979-07-30 06:06:56.560 ,5,0,0.,4.8,9.,4.8,2.,4.8,0.,4.8
1979-07-30 06:07:01.360 ,5,0,0.,4.8,7.,4.8,0.,4.8,0.,4.8
1979-07-30 06:07:06.160 ,5,0,0.,4.8,4.,4.8,0.,4.8,0.,4.8
1979-07-30 06:07:10.960 ,4,0,0.,4.8,1.,4.8,0.,4.8,0.,4.8
1979-07-30 06:07:15.760 ,4,0,0.,4.8,3.,4.8,1.,4.8,0.,4.8
1979-07-30 06:07:20.560 ,4,0,0.,4.8,4.,4.8,2.,4.8,1.,4.8
1979-07-30 06:07:25.360 ,4,0,0.,4.8,5.,4.8,1.,4.8,0.,4.8
1979-07-30 06:07:30.160 ,4,0,0.,4.8,6.,4.8,1.,4.8,0.,4.8
1979-07-30 06:07:34.960 ,4,0,0.,4.8,3.,4.8,1.,4.8,0.,4.8
1979-07-30 06:07:39.760 ,4,0,0.,4.8,5.,4.8,2.,4.8,0.,4.8
1979-07-30 06:07:44.560 ,4,0,0.,4.8,7.,4.8,0.,4.8,0.,4.8
1979-07-30 06:07:49.360 ,4,0,0.,4.8,3.,4.8,1.,4.8,0.,4.8
1979-07-30 06:07:54.160 ,4,0,0.,4.8,8.,4.8,2.,4.8,0.,4.8
1979-07-30 06:07:58.960 ,3,0,0.,4.8,5.,4.8,1.,4.8,1.,4.8
1979-07-30 06:08:03.760 ,3,0,0.,4.8,2.,4.8,0.,4.8,1.,4.8
1979-07-30 06:08:08.560 ,3,0,0.,4.8,2.,4.8,1.,4.8,0.,4.8
1979-07-30 06:08:13.360 ,3,0,0.,4.8,8.,4.8,1.,4.8,0.,4.8
1979-07-30 06:08:18.160 ,3,0,0.,4.8,8.,4.8,1.,4.8,1.,4.8
1979-07-30 06:08:22.960 ,3,0,0.,4.8,4.,4.8,2.,4.8,0.,4.8
1979-07-30 06:08:27.760 ,3,0,0.,4.8,2.,4.8,0.,4.8,0.,4.8
1979-07-30 06:08:32.560 ,3,0,0.,4.8,3.,4.8,1.,4.8,0.,4.8
1979-07-30 06:08:37.360 ,3,0,0.,4.8,6.,4.8,0.,4.8,0.,4.8
1979-07-30 06:08:42.160 ,3,0,0.,4.8,5.,4.8,1.,4.8,0.,4.8
1979-07-30 06:08:46.960 ,2,0,0.,4.8,2.,4.8,0.,4.8,0.,4.8
1979-07-30 06:08:51.760 ,2,0,0.,4.8,8.,4.8,1.,4.8,0.,4.8
1979-07-30 06:08:56.560 ,2,0,0.,4.8,14.,4.8,0.,4.8,0.,4.8
1979-07-30 06:09:01.360 ,2,0,0.,4.8,8.,4.8,0.,4.8,0.,4.8
1979-07-30 06:09:06.160 ,2,0,0.,4.8,15.,4.8,2.,4.8,0.,4.8
1979-07-30 06:09:10.960 ,2,0,0.,4.8,16.,4.8,0.,4.8,1.,4.8
1979-07-30 06:09:15.760 ,2,0,0.,4.8,10.,4.8,2.,4.8,0.,4.8
1979-07-30 06:09:20.560 ,2,0,0.,4.8,6.,4.8,0.,4.8,0.,4.8
1979-07-30 06:09:25.360 ,2,0,0.,4.8,1.,4.8,2.,4.8,0.,4.8
1979-07-30 06:09:30.160 ,2,0,0.,4.8,12.,4.8,1.,4.8,0.,4.8
1979-07-30 06:09:34.960 ,1,0,0.,4.8,10.,4.8,1.,4.8,0.,4.8
1979-07-30 06:09:39.760 ,1,0,0.,4.8,10.,4.8,2.,4.8,1.,4.8
1979-07-30 06:09:44.560 ,1,0,0.,4.8,11.,4.8,0.,4.8,0.,4.8
1979-07-30 06:09:49.360 ,1,0,0.,4.8,8.,4.8,1.,4.8,0.,4.8
1979-07-30 06:09:54.160 ,1,0,0.,4.8,8.,4.8,1.,4.8,1.,4.8
1979-07-30 06:09:58.960 ,1,0,0.,4.8,7.,4.8,2.,4.8,0.,4.8
1979-07-30 06:10:03.760 ,1,0,0.,4.8,5.,4.8,2.,4.8,2.,4.8
1979-07-30 06:10:08.560 ,1,0,0.,4.8,14.,4.8,0.,4.8,0.,4.8
1979-07-30 06:10:13.360 ,1,0,0.,4.8,10.,4.8,1.,4.8,0.,4.8
1979-07-30 06:10:18.160 ,1,0,0.,4.8,10.,4.8,0.,4.8,0.,4.8
1979-07-30 06:10:22.960 ,0,0,0.,4.8,11.,4.8,2.,4.8,0.,4.8
1979-07-30 06:10:27.760 ,0,0,0.,4.8,14.,4.8,2.,4.8,0.,4.8
1979-07-30 06:10:32.550 ,0,0,0.,4.8,1.,4.8,2.,4.8,0.,4.8
1979-07-30 06:10:37.350 ,0,0,0.,4.8,5.,4.8,1.,4.8,0.,4.8
1979-07-30 06:10:42.160 ,0,0,0.,4.8,7.,4.8,2.,4.8,0.,4.8
1979-07-30 06:10:46.960 ,0,0,0.,4.8,4.,4.8,0.,4.8,0.,4.8
1979-07-30 06:10:51.760 ,0,0,0.,4.8,5.,4.8,0.,4.8,0.,4.8
1979-07-30 06:10:56.550 ,0,0,0.,4.8,5.,4.8,1.,4.8,2.,4.8
1979-07-30 06:11:01.350 ,0,0,0.,4.8,4.,4.8,2.,4.8,0.,4.8
1979-07-30 06:11:06.160 ,0,0,0.,4.8,3.,4.8,0.,4.8,1.,4.8
1979-07-30 06:11:10.960 ,0,0,0.,4.8,7.,4.8,1.,4.8,0.,4.8
1979-07-30 06:11:15.760 ,0,0,0.,4.8,4.,4.8,0.,4.8,1.,4.8
1979-07-30 06:11:20.550 ,0,0,0.,4.8,9.,4.8,2.,4.8,0.,4.8
1979-07-30 06:11:25.350 ,0,0,0.,4.8,3.,4.8,2.,4.8,0.,4.8
1979-07-30 06:11:30.160 ,0,0,0.,4.8,4.,4.8,0.,4.8,0.,4.8
1979-07-30 06:11:34.960 ,0,0,0.,4.8,8.,4.8,2.,4.8,1.,4.8
1979-07-30 06:11:39.760 ,0,0,0.,4.8,4.,4.8,1.,4.8,1.,4.8
1979-07-30 06:11:44.550 ,0,0,0.,4.8,7.,4.8,2.,4.8,1.,4.8
1979-07-30 06:11:49.350 ,0,0,0.,4.8,5.,4.8,1.,4.8,0.,4.8
1979-07-30 06:11:54.160 ,0,0,0.,4.8,4.,4.8,1.,4.8,0.,4.8
1979-07-30 06:11:58.960 ,1,0,0.,4.8,9.,4.8,0.,4.8,0.,4.8
1979-07-30 06:12:03.760 ,1,0,0.,4.8,7.,4.8,2.,4.8,0.,4.8
1979-07-30 06:12:08.550 ,1,0,0.,4.8,16.,4.8,0.,4.8,0.,4.8
1979-07-30 06:12:13.350 ,1,0,0.,4.8,11.,4.8,0.,4.8,0.,4.8
1979-07-30 06:12:18.160 ,1,0,0.,4.8,16.,4.8,2.,4.8,0.,4.8
1979-07-30 06:12:22.960 ,1,0,0.,4.8,8.,4.8,2.,4.8,0.,4.8
1979-07-30 06:12:27.760 ,1,0,0.,4.8,7.,4.8,0.,4.8,0.,4.8
1979-07-30 06:12:32.550 ,1,0,0.,4.8,5.,4.8,1.,4.8,0.,4.8
1979-07-30 06:12:37.350 ,1,0,0.,4.8,7.,4.8,1.,4.8,0.,4.8
1979-07-30 06:12:42.160 ,1,0,0.,4.8,10.,4.8,0.,4.8,0.,4.8
1979-07-30 06:12:46.960 ,2,0,0.,4.8,10.,4.8,0.,4.8,0.,4.8
1979-07-30 06:12:51.760 ,2,0,0.,4.8,13.,4.8,5.,4.8,0.,4.8
1979-07-30 06:12:56.550 ,2,0,0.,4.8,6.,4.8,0.,4.8,0.,4.8
1979-07-30 06:13:01.350 ,2,0,0.,4.8,4.,4.8,0.,4.8,0.,4.8
1979-07-30 06:13:06.160 ,2,0,0.,4.8,10.,4.8,1.,4.8,1.,4.8
1979-07-30 06:13:10.960 ,2,0,0.,4.8,12.,4.8,0.,4.8,0.,4.8
1979-07-30 06:13:15.760 ,2,0,0.,4.8,12.,4.8,0.,4.8,0.,4.8
1979-07-30 06:13:20.550 ,2,0,0.,4.8,7.,4.8,1.,4.8,1.,4.8
1979-07-30 06:13:25.350 ,2,0,1.,4.8,10.,4.8,0.,4.8,2.,4.8
1979-07-30 06:13:30.160 ,2,0,0.,4.8,10.,4.8,1.,4.8,0.,4.8
1979-07-30 06:13:34.960 ,3,0,0.,4.8,17.,4.8,0.,4.8,0.,4.8
1979-07-30 06:13:39.760 ,3,0,0.,4.8,10.,4.8,0.,4.8,1.,4.8
1979-07-30 06:13:44.550 ,3,0,0.,4.8,7.,4.8,1.,4.8,1.,4.8
1979-07-30 06:13:49.350 ,3,0,0.,4.8,6.,4.8,1.,4.8,0.,4.8
1979-07-30 06:13:54.160 ,3,0,0.,4.8,5.,4.8,0.,4.8,1.,4.8
1979-07-30 06:13:58.960 ,3,0,0.,4.8,3.,4.8,1.,4.8,0.,4.8
1979-07-30 06:14:03.760 ,3,0,0.,4.8,8.,4.8,1.,4.8,0.,4.8
1979-07-30 06:14:08.550 ,3,0,0.,4.8,6.,4.8,0.,4.8,0.,4.8
1979-07-30 06:14:13.350 ,3,0,0.,4.8,6.,4.8,1.,4.8,0.,4.8
1979-07-30 06:14:18.160 ,3,0,0.,4.8,3.,4.8,0.,4.8,0.,4.8
1979-07-30 06:14:22.960 ,4,0,0.,4.8,9.,4.8,1.,4.8,0.,4.8
1979-07-30 06:14:27.760 ,4,0,0.,4.8,4.,4.8,1.,4.8,0.,4.8
1979-07-30 06:14:32.550 ,4,0,0.,4.8,8.,4.8,0.,4.8,0.,4.8
1979-07-30 06:14:37.350 ,4,0,0.,4.8,4.,4.8,0.,4.8,0.,4.8
1979-07-30 06:14:42.160 ,4,0,0.,4.8,5.,4.8,0.,4.8,1.,4.8
1979-07-30 06:14:46.960 ,4,0,0.,4.8,4.,4.8,0.,4.8,0.,4.8
1979-07-30 06:14:51.760 ,4,0,0.,4.8,4.,4.8,0.,4.8,0.,4.8
1979-07-30 06:14:56.550 ,4,0,0.,4.8,4.,4.8,1.,4.8,0.,4.8
1979-07-30 06:15:01.350 ,4,0,0.,4.8,3.,4.8,0.,4.8,0.,4.8
1979-07-30 06:15:06.160 ,4,0,0.,4.8,3.,4.8,0.,4.8,1.,4.8
1979-07-30 06:15:10.960 ,5,0,0.,4.8,4.,4.8,1.,4.8,0.,4.8
1979-07-30 06:15:15.760 ,5,0,0.,4.8,6.,4.8,2.,4.8,1.,4.8
1979-07-30 06:15:20.550 ,5,0,0.,4.8,6.,4.8,0.,4.8,0.,4.8
1979-07-30 06:15:25.350 ,5,0,0.,4.8,5.,4.8,1.,4.8,1.,4.8
1979-07-30 06:15:30.160 ,5,0,0.,4.8,1.,4.8,0.,4.8,0.,4.8
1979-07-30 06:15:34.960 ,5,0,0.,4.8,4.,4.8,0.,4.8,1.,4.8
1979-07-30 06:15:39.760 ,5,0,0.,4.8,2.,4.8,1.,4.8,0.,4.8
1979-07-30 06:15:44.550 ,5,0,0.,4.8,7.,4.8,1.,4.8,1.,4.8
1979-07-30 06:15:49.350 ,5,0,0.,4.8,4.,4.8,1.,4.8,0.,4.8
1979-07-30 06:15:54.160 ,5,0,0.,4.8,7.,4.8,1.,4.8,0.,4.8
1979-07-30 06:15:58.960 ,6,0,0.,4.8,5.,4.8,0.,4.8,0.,4.8
1979-07-30 06:16:03.760 ,6,0,1.,4.8,8.,4.8,0.,4.8,1.,4.8
1979-07-30 06:16:08.550 ,6,0,0.,4.8,8.,4.8,2.,4.8,0.,4.8
1979-07-30 06:16:13.350 ,6,0,0.,4.8,9.,4.8,2.,4.8,0.,4.8
1979-07-30 06:16:18.160 ,6,0,0.,4.8,8.,4.8,1.,4.8,0.,4.8
1979-07-30 06:16:22.960 ,6,0,0.,4.8,7.,4.8,0.,4.8,1.,4.8
1979-07-30 06:16:27.760 ,6,0,0.,4.8,9.,4.8,2.,4.8,0.,4.8
1979-07-30 06:16:32.550 ,6,0,0.,4.8,10.,4.8,2.,4.8,1.,4.8
1979-07-30 06:16:37.350 ,6,0,0.,4.8,11.,4.8,0.,4.8,0.,4.8
1979-07-30 06:16:42.160 ,6,0,1.,4.8,5.,4.8,0.,4.8,0.,4.8
1979-07-30 06:16:46.960 ,7,0,0.,4.8,5.,4.8,1.,4.8,0.,4.8
1979-07-30 06:16:51.760 ,7,0,0.,4.8,9.,4.8,1.,4.8,0.,4.8
1979-07-30 06:16:56.550 ,7,0,0.,4.8,1.,4.8,0.,4.8,1.,4.8
1979-07-30 06:17:01.350 ,7,0,0.,4.8,1.,4.8,0.,4.8,0.,4.8
1979-07-30 06:17:06.160 ,7,0,0.,4.8,2.,4.8,0.,4.8,0.,4.8
1979-07-30 06:17:10.960 ,7,0,0.,4.8,1.,4.8,0.,4.8,0.,4.8
1979-07-30 06:17:15.760 ,7,0,0.,4.8,0.,4.8,0.,4.8,0.,4.8
1979-07-30 06:17:20.560 ,7,0,0.,4.8,0.,4.8,0.,4.8,0.,4.8
1979-07-30 06:17:25.360 ,7,0,0.,4.8,0.,4.8,0.,4.8,0.,4.8
1979-07-30 06:17:30.160 ,7,0,0.,4.8,0.,4.8,1.,4.8,0.,4.8
1979-07-30 06:17:34.960 ,7,0,0.,4.8,1.,4.8,0.,4.8,0.,4.8
1979-07-30 06:17:39.760 ,7,0,0.,4.8,0.,4.8,0.,4.8,0.,4.8
1979-07-30 06:17:44.560 ,7,0,0.,4.8,2.,4.8,0.,4.8,2.,4.8
1979-07-30 06:17:49.360 ,7,0,0.,4.8,2.,4.8,0.,4.8,1.,4.8
1979-07-30 06:17:54.160 ,7,0,0.,4.8,3.,4.8,0.,4.8,0.,4.8
1979-07-30 06:17:58.960 ,7,0,0.,4.8,0.,4.8,0.,4.8,0.,4.8
1979-07-30 06:18:03.760 ,7,0,0.,4.8,0.,4.8,0.,4.8,0.,4.8
1979-07-30 06:18:08.560 ,7,0,0.,4.8,0.,4.8,0.,4.8,0.,4.8
1979-07-30 06:18:13.360 ,7,0,0.,4.8,1.,4.8,0.,4.8,0.,4.8
1979-07-30 06:18:18.160 ,7,0,0.,4.8,1.,4.8,0.,4.8,1.,4.8
1979-07-30 06:18:22.960 ,6,0,0.,4.8,0.,4.8,0.,4.8,0.,4.8
1979-07-30 06:18:27.760 ,6,0,0.,4.8,0.,4.8,0.,4.8,0.,4.8
1979-07-30 06:18:32.560 ,6,0,0.,4.8,4.,4.8,2.,4.8,0.,4.8
1979-07-30 06:18:37.360 ,6,0,0.,4.8,8.,4.8,0.,4.8,0.,4.8
1979-07-30 06:18:42.160 ,6,0,0.,4.8,6.,4.8,2.,4.8,0.,4.8
1979-07-30 06:18:46.960 ,6,0,0.,4.8,9.,4.8,2.,4.8,1.,4.8
1979-07-30 06:18:51.760 ,6,0,0.,4.8,9.,4.8,1.,4.8,1.,4.8
1979-07-30 06:18:56.560 ,6,0,0.,4.8,7.,4.8,1.,4.8,0.,4.8
1979-07-30 06:19:01.360 ,6,0,0.,4.8,10.,4.8,0.,4.8,1.,4.8
1979-07-30 06:19:06.160 ,6,0,0.,4.8,9.,4.8,2.,4.8,1.,4.8
1979-07-30 06:19:10.960 ,5,0,0.,4.8,8.,4.8,0.,4.8,1.,4.8
1979-07-30 06:19:15.760 ,5,0,0.,4.8,5.,4.8,1.,4.8,0.,4.8
1979-07-30 06:19:20.560 ,5,0,0.,4.8,5.,4.8,0.,4.8,0.,4.8
1979-07-30 06:19:25.360 ,5,0,0.,4.8,7.,4.8,1.,4.8,0.,4.8
1979-07-30 06:19:30.160 ,5,0,0.,4.8,4.,4.8,0.,4.8,0.,4.8
1979-07-30 06:19:34.960 ,5,0,0.,4.8,3.,4.8,0.,4.8,0.,4.8
1979-07-30 06:19:39.760 ,5,0,0.,4.8,4.,4.8,1.,4.8,0.,4.8
1979-07-30 06:19:44.560 ,5,0,0.,4.8,5.,4.8,0.,4.8,0.,4.8
1979-07-30 06:19:49.360 ,5,0,0.,4.8,8.,4.8,0.,4.8,0.,4.8
1979-07-30 06:19:54.160 ,5,0,0.,4.8,2.,4.8,1.,4.8,1.,4.8
1979-07-30 06:19:58.960 ,4,0,0.,4.8,3.,4.8,0.,4.8,1.,4.8
1979-07-30 06:20:03.760 ,4,0,0.,4.8,8.,4.8,0.,4.8,1.,4.8
1979-07-30 06:20:08.560 ,4,0,0.,4.8,3.,4.8,1.,4.8,0.,4.8
1979-07-30 06:20:13.360 ,4,0,0.,4.8,6.,4.8,0.,4.8,0.,4.8
1979-07-30 06:20:18.160 ,4,0,0.,4.8,6.,4.8,0.,4.8,1.,4.8
1979-07-30 06:20:22.960 ,4,0,0.,4.8,7.,4.8,1.,4.8,1.,4.8
1979-07-30 06:20:27.760 ,4,0,0.,4.8,1.,4.8,0.,4.8,0.,4.8
1979-07-30 06:20:32.560 ,4,0,0.,4.8,4.,4.8,0.,4.8,0.,4.8
1979-07-30 06:20:37.360 ,4,0,0.,4.8,5.,4.8,0.,4.8,0.,4.8
1979-07-30 06:20:42.160 ,4,0,0.,4.8,3.,4.8,0.,4.8,0.,4.8
1979-07-30 06:20:46.960 ,3,0,0.,4.8,2.,4.8,0.,4.8,0.,4.8
1979-07-30 06:20:51.760 ,3,0,0.,4.8,3.,4.8,0.,4.8,0.,4.8
1979-07-30 06:20:56.560 ,3,0,0.,4.8,6.,4.8,1.,4.8,1.,4.8
1979-07-30 06:21:01.360 ,3,0,0.,4.8,4.,4.8,0.,4.8,0.,4.8
1979-07-30 06:21:06.160 ,3,0,0.,4.8,3.,4.8,0.,4.8,0.,4.8
1979-07-30 06:21:10.960 ,3,0,0.,4.8,7.,4.8,0.,4.8,0.,4.8
1979-07-30 06:21:15.760 ,3,0,0.,4.8,7.,4.8,0.,4.8,1.,4.8
1979-07-30 06:21:20.560 ,3,0,0.,4.8,2.,4.8,1.,4.8,0.,4.8
1979-07-30 06:21:25.360 ,3,0,0.,4.8,4.,4.8,1.,4.8,0.,4.8
1979-07-30 06:21:30.160 ,3,0,0.,4.8,12.,4.8,2.,4.8,0.,4.8
1979-07-30 06:21:34.960 ,2,0,0.,4.8,2.,4.8,0.,4.8,0.,4.8
1979-07-30 06:21:39.760 ,2,0,0.,4.8,3.,4.8,0.,4.8,0.,4.8
1979-07-30 06:21:44.560 ,2,0,0.,4.8,6.,4.8,0.,4.8,0.,4.8
1979-07-30 06:21:49.360 ,2,0,0.,4.8,11.,4.8,3.,4.8,0.,4.8
1979-07-30 06:21:54.160 ,2,0,0.,4.8,11.,4.8,1.,4.8,0.,4.8
1979-07-30 06:21:58.960 ,2,0,0.,4.8,11.,4.8,1.,4.8,0.,4.8
1979-07-30 06:22:03.760 ,2,0,0.,4.8,7.,4.8,0.,4.8,1.,4.8
1979-07-30 06:22:08.560 ,2,0,0.,4.8,7.,4.8,1.,4.8,0.,4.8
1979-07-30 06:22:13.360 ,2,0,0.,4.8,7.,4.8,1.,4.8,2.,4.8
1979-07-30 06:22:18.160 ,2,0,0.,4.8,14.,4.8,1.,4.8,0.,4.8
1979-07-30 06:22:22.960 ,1,0,0.,4.8,10.,4.8,1.,4.8,0.,4.8
1979-07-30 06:22:27.760 ,1,0,0.,4.8,9.,4.8,2.,4.8,0.,4.8
1979-07-30 06:22:32.560 ,1,0,0.,4.8,10.,4.8,3.,4.8,0.,4.8
1979-07-30 06:22:37.360 ,1,0,0.,4.8,7.,4.8,2.,4.8,0.,4.8
1979-07-30 06:22:42.160 ,1,0,0.,4.8,11.,4.8,1.,4.8,1.,4.8
1979-07-30 06:22:46.960 ,1,0,0.,4.8,9.,4.8,1.,4.8,0.,4.8
1979-07-30 06:22:51.760 ,1,0,0.,4.8,12.,4.8,0.,4.8,0.,4.8
1979-07-30 06:22:56.560 ,1,0,0.,4.8,8.,4.8,1.,4.8,1.,4.8
1979-07-30 06:23:01.360 ,1,0,0.,4.8,10.,4.8,0.,4.8,0.,4.8
1979-07-30 06:23:06.160 ,1,0,0.,4.8,6.,4.8,0.,4.8,0.,4.8
1979-07-30 06:23:10.960 ,0,0,0.,4.8,14.,4.8,1.,4.8,0.,4.8
1979-07-30 06:23:15.760 ,0,0,0.,4.8,21.,4.8,4.,4.8,0.,4.8
1979-07-30 06:23:20.560 ,0,0,0.,4.8,6.,4.8,0.,4.8,2.,4.8
1979-07-30 06:23:25.360 ,0,0,0.,4.8,6.,4.8,1.,4.8,1.,4.8
1979-07-30 06:23:30.160 ,0,0,0.,4.8,9.,4.8,1.,4.8,0.,4.8
1979-07-30 06:23:34.960 ,0,0,0.,4.8,8.,4.8,0.,4.8,0.,4.8
1979-07-30 06:23:39.760 ,0,0,0.,4.8,10.,4.8,0.,4.8,1.,4.8
1979-07-30 06:23:44.560 ,0,0,0.,4.8,3.,4.8,1.,4.8,0.,4.8
1979-07-30 06:23:49.360 ,0,0,0.,4.8,3.,4.8,0.,4.8,1.,4.8
1979-07-30 06:23:54.160 ,0,0,0.,4.8,8.,4.8,0.,4.8,2.,4.8
1979-07-30 06:23:58.960 ,0,0,0.,4.8,2.,4.8,3.,4.8,1.,4.8
1979-07-30 06:24:03.760 ,0,0,0.,4.8,6.,4.8,0.,4.8,0.,4.8
1979-07-30 06:24:08.560 ,0,0,0.,4.8,5.,4.8,1.,4.8,1.,4.8
1979-07-30 06:24:13.360 ,0,0,0.,4.8,7.,4.8,2.,4.8,0.,4.8
1979-07-30 06:24:18.160 ,0,0,0.,4.8,1.,4.8,1.,4.8,0.,4.8
1979-07-30 06:24:22.960 ,0,0,0.,4.8,5.,4.8,3.,4.8,1.,4.8
1979-07-30 06:24:27.760 ,0,0,0.,4.8,4.,4.8,3.,4.8,0.,4.8
1979-07-30 06:24:32.560 ,0,0,0.,4.8,9.,4.8,0.,4.8,0.,4.8
1979-07-30 06:24:37.360 ,0,0,0.,4.8,3.,4.8,0.,4.8,0.,4.8
1979-07-30 06:24:42.160 ,0,0,0.,4.8,8.,4.8,0.,4.8,0.,4.8
1979-07-30 06:24:46.960 ,1,0,0.,4.8,7.,4.8,0.,4.8,1.,4.8
1979-07-30 06:24:51.760 ,1,0,0.,4.8,3.,4.8,0.,4.8,1.,4.8
1979-07-30 06:24:56.560 ,1,0,0.,4.8,18.,4.8,1.,4.8,0.,4.8
1979-07-30 06:25:01.360 ,1,0,0.,4.8,10.,4.8,0.,4.8,0.,4.8
1979-07-30 06:25:06.160 ,1,0,0.,4.8,13.,4.8,0.,4.8,0.,4.8
1979-07-30 06:25:10.960 ,1,0,0.,4.8,11.,4.8,4.,4.8,1.,4.8
1979-07-30 06:25:15.760 ,1,0,0.,4.8,12.,4.8,1.,4.8,0.,4.8
1979-07-30 06:25:20.560 ,1,0,0.,4.8,10.,4.8,0.,4.8,1.,4.8
1979-07-30 06:25:25.360 ,1,0,0.,4.8,11.,4.8,2.,4.8,1.,4.8
1979-07-30 06:25:30.160 ,1,0,0.,4.8,13.,4.8,1.,4.8,2.,4.8
1979-07-30 06:25:34.960 ,2,0,0.,4.8,7.,4.8,1.,4.8,0.,4.8
1979-07-30 06:25:39.760 ,2,0,0.,4.8,9.,4.8,0.,4.8,1.,4.8
1979-07-30 06:25:44.560 ,2,0,0.,4.8,12.,4.8,1.,4.8,0.,4.8
1979-07-30 06:25:49.360 ,2,0,0.,4.8,9.,4.8,0.,4.8,0.,4.8
1979-07-30 06:25:54.160 ,2,0,0.,4.8,5.,4.8,1.,4.8,0.,4.8
1979-07-30 06:25:58.960 ,2,0,0.,4.8,8.,4.8,3.,4.8,0.,4.8
1979-07-30 06:26:03.760 ,2,0,0.,4.8,8.,4.8,0.,4.8,0.,4.8
1979-07-30 06:26:08.560 ,2,0,0.,4.8,11.,4.8,2.,4.8,0.,4.8
1979-07-30 06:26:13.360 ,2,0,0.,4.8,4.,4.8,3.,4.8,0.,4.8
1979-07-30 06:26:18.160 ,2,0,0.,4.8,12.,4.8,1.,4.8,0.,4.8
1979-07-30 06:26:22.960 ,3,0,0.,4.8,11.,4.8,3.,4.8,0.,4.8
1979-07-30 06:26:27.760 ,3,0,0.,4.8,11.,4.8,1.,4.8,2.,4.8
1979-07-30 06:26:32.560 ,3,0,0.,4.8,8.,4.8,1.,4.8,0.,4.8
1979-07-30 06:26:37.360 ,3,0,0.,4.8,0.,4.8,0.,4.8,0.,4.8
1979-07-30 06:26:42.160 ,3,0,0.,4.8,1.,4.8,0.,4.8,0.,4.8
1979-07-30 06:26:46.960 ,3,0,0.,4.8,4.,4.8,0.,4.8,0.,4.8
1979-07-30 06:26:51.760 ,3,0,0.,4.8,10.,4.8,1.,4.8,1.,4.8
1979-07-30 06:26:56.560 ,3,0,0.,4.8,3.,4.8,1.,4.8,0.,4.8
1979-07-30 06:27:01.360 ,3,0,0.,4.8,8.,4.8,0.,4.8,1.,4.8
1979-07-30 06:27:06.160 ,3,0,0.,4.8,5.,4.8,2.,4.8,0.,4.8
1979-07-30 06:27:10.960 ,4,0,0.,4.8,11.,4.8,0.,4.8,0.,4.8
1979-07-30 06:27:15.760 ,4,0,0.,4.8,10.,4.8,1.,4.8,1.,4.8
1979-07-30 06:27:20.560 ,4,0,0.,4.8,1.,4.8,0.,4.8,0.,4.8
1979-07-30 06:27:25.360 ,4,0,0.,4.8,5.,4.8,2.,4.8,0.,4.8
1979-07-30 06:27:30.160 ,4,0,0.,4.8,3.,4.8,1.,4.8,0.,4.8
1979-07-30 06:27:34.960 ,4,0,0.,4.8,5.,4.8,1.,4.8,0.,4.8
1979-07-30 06:27:39.760 ,4,0,0.,4.8,6.,4.8,1.,4.8,0.,4.8
1979-07-30 06:27:44.560 ,4,0,0.,4.8,2.,4.8,2.,4.8,0.,4.8
1979-07-30 06:27:49.360 ,4,0,0.,4.8,3.,4.8,0.,4.8,0.,4.8
1979-07-30 06:27:54.160 ,4,0,0.,4.8,5.,4.8,1.,4.8,0.,4.8
1979-07-30 06:27:58.960 ,5,0,0.,4.8,4.,4.8,1.,4.8,0.,4.8
1979-07-30 06:28:03.760 ,5,0,0.,4.8,4.,4.8,1.,4.8,0.,4.8
1979-07-30 06:28:08.560 ,5,0,0.,4.8,6.,4.8,0.,4.8,0.,4.8
1979-07-30 06:28:13.360 ,5,0,0.,4.8,8.,4.8,1.,4.8,0.,4.8
1979-07-30 06:28:18.160 ,5,0,0.,4.8,7.,4.8,0.,4.8,0.,4.8
1979-07-30 06:28:22.960 ,5,0,0.,4.8,7.,4.8,0.,4.8,0.,4.8
1979-07-30 06:28:27.760 ,5,0,0.,4.8,5.,4.8,2.,4.8,1.,4.8
1979-07-30 06:28:32.560 ,5,0,0.,4.8,3.,4.8,1.,4.8,0.,4.8
1979-07-30 06:28:37.360 ,5,0,0.,4.8,3.,4.8,0.,4.8,0.,4.8
1979-07-30 06:28:42.160 ,5,0,0.,4.8,3.,4.8,1.,4.8,0.,4.8
1979-07-30 06:28:46.960 ,6,0,0.,4.8,4.,4.8,0.,4.8,1.,4.8
1979-07-30 06:28:51.760 ,6,0,0.,4.8,5.,4.8,0.,4.8,0.,4.8
1979-07-30 06:28:56.560 ,6,0,0.,4.8,12.,4.8,3.,4.8,0.,4.8
1979-07-30 06:29:01.360 ,6,0,0.,4.8,3.,4.8,2.,4.8,1.,4.8
1979-07-30 06:29:06.160 ,6,0,0.,4.8,13.,4.8,3.,4.8,2.,4.8
1979-07-30 06:29:10.960 ,6,0,0.,4.8,6.,4.8,1.,4.8,0.,4.8
1979-07-30 06:29:15.760 ,6,0,0.,4.8,7.,4.8,1.,4.8,1.,4.8
1979-07-30 06:29:20.560 ,6,0,0.,4.8,7.,4.8,1.,4.8,0.,4.8
1979-07-30 06:29:25.360 ,6,0,0.,4.8,11.,4.8,1.,4.8,1.,4.8
1979-07-30 06:29:30.160 ,6,0,0.,4.8,9.,4.8,1.,4.8,1.,4.8
1979-07-30 06:29:34.950 ,7,0,0.,4.8,13.,4.8,1.,4.8,0.,4.8
1979-07-30 06:29:39.750 ,7,0,0.,4.8,11.,4.8,2.,4.8,0.,4.8
1979-07-30 06:29:44.550 ,7,0,0.,4.8,1.,4.8,0.,4.8,0.,4.8
1979-07-30 06:29:49.350 ,7,0,0.,4.8,0.,4.8,0.,4.8,0.,4.8
1979-07-30 06:29:54.150 ,7,0,0.,4.8,3.,4.8,0.,4.8,0.,4.8
1979-07-30 06:29:58.950 ,7,0,0.,4.8,0.,4.8,0.,4.8,0.,4.8
1979-07-30 06:30:03.750 ,7,0,0.,4.8,2.,4.8,0.,4.8,0.,4.8
1979-07-30 06:30:08.550 ,7,0,0.,4.8,0.,4.8,0.,4.8,0.,4.8
1979-07-30 06:30:13.350 ,7,0,0.,4.8,1.,4.8,0.,4.8,0.,4.8
1979-07-30 06:30:18.150 ,7,0,0.,4.8,0.,4.8,0.,4.8,0.,4.8
1979-07-30 06:30:22.950 ,7,0,0.,4.8,1.,4.8,0.,4.8,0.,4.8
1979-07-30 06:30:27.750 ,7,0,0.,4.8,0.,4.8,1.,4.8,1.,4.8
1979-07-30 06:30:32.550 ,7,0,0.,4.8,1.,4.8,0.,4.8,0.,4.8
1979-07-30 06:30:37.350 ,7,0,0.,4.8,1.,4.8,0.,4.8,0.,4.8
1979-07-30 06:30:42.150 ,7,0,0.,4.8,0.,4.8,0.,4.8,0.,4.8
1979-07-30 06:30:46.950 ,7,0,0.,4.8,2.,4.8,0.,4.8,0.,4.8
1979-07-30 06:30:51.750 ,7,0,0.,4.8,0.,4.8,0.,4.8,0.,4.8
1979-07-30 06:30:56.550 ,7,0,0.,4.8,1.,4.8,0.,4.8,0.,4.8
1979-07-30 06:31:01.350 ,7,0,0.,4.8,0.,4.8,0.,4.8,0.,4.8
1979-07-30 06:31:06.150 ,7,0,0.,4.8,0.,4.8,0.,4.8,0.,4.8
1979-07-30 06:31:10.950 ,6,0,0.,4.8,1.,4.8,0.,4.8,0.,4.8
1979-07-30 06:31:15.750 ,6,0,0.,4.8,1.,4.8,0.,4.8,0.,4.8
1979-07-30 06:31:20.550 ,6,0,0.,4.8,4.,4.8,1.,4.8,0.,4.8
1979-07-30 06:31:25.350 ,6,0,0.,4.8,8.,4.8,1.,4.8,2.,4.8
1979-07-30 06:31:30.150 ,6,0,0.,4.8,11.,4.8,2.,4.8,0.,4.8
1979-07-30 06:31:34.950 ,6,0,0.,4.8,11.,4.8,0.,4.8,0.,4.8
1979-07-30 06:31:39.750 ,6,0,0.,4.8,5.,4.8,1.,4.8,0.,4.8
1979-07-30 06:31:44.550 ,6,0,0.,4.8,11.,4.8,0.,4.8,0.,4.8
1979-07-30 06:31:49.350 ,6,0,0.,4.8,9.,4.8,0.,4.8,0.,4.8
1979-07-30 06:31:54.150 ,6,0,0.,4.8,10.,4.8,0.,4.8,1.,4.8
1979-07-30 06:31:58.950 ,5,0,0.,4.8,7.,4.8,0.,4.8,0.,4.8
1979-07-30 06:32:03.750 ,5,0,0.,4.8,8.,4.8,1.,4.8,0.,4.8
1979-07-30 06:32:08.550 ,5,0,0.,4.8,4.,4.8,2.,4.8,0.,4.8
1979-07-30 06:32:13.350 ,5,0,0.,4.8,9.,4.8,0.,4.8,0.,4.8
1979-07-30 06:32:18.150 ,5,0,0.,4.8,3.,4.8,1.,4.8,2.,4.8
1979-07-30 06:32:22.950 ,5,0,0.,4.8,6.,4.8,1.,4.8,0.,4.8
1979-07-30 06:32:27.750 ,5,0,0.,4.8,4.,4.8,1.,4.8,1.,4.8
1979-07-30 06:32:32.550 ,5,0,0.,4.8,5.,4.8,3.,4.8,0.,4.8
1979-07-30 06:32:37.350 ,5,0,0.,4.8,5.,4.8,0.,4.8,0.,4.8
1979-07-30 06:32:42.150 ,5,0,0.,4.8,10.,4.8,1.,4.8,0.,4.8
1979-07-30 06:32:46.950 ,4,0,0.,4.8,4.,4.8,0.,4.8,0.,4.8
1979-07-30 06:32:51.750 ,4,0,0.,4.8,6.,4.8,1.,4.8,0.,4.8
1979-07-30 06:32:56.550 ,4,0,0.,4.8,9.,4.8,0.,4.8,0.,4.8
1979-07-30 06:33:01.350 ,4,0,0.,4.8,5.,4.8,0.,4.8,0.,4.8
1979-07-30 06:33:06.150 ,4,0,0.,4.8,3.,4.8,0.,4.8,0.,4.8
1979-07-30 06:33:10.950 ,4,0,0.,4.8,5.,4.8,1.,4.8,0.,4.8